Lid_Strength_Index
5 5 3 4 4 4 5 4 3 2 3 3 3 3 3 4 4 8 9 6 9 11 10 8 7 10 10 10 12 11 11 11 12 14 14 14 14 13 13 12 12 13 14 14 13 15 16 6 7 11 9 7 8 9
6 5 4 4 4 5 5 5 4 3 3 3 3 3 3 4 4 6 9 7 7 9 9 7 8 8 9 8 11 12 12 12 11 12 12 13 13 13 13 15 10 14 12 13 12 12 8 8 8 6 6 7 6 8
6 6 5 4 4 5 5 5 4 4 3 3 3 3 3 4 4 7 8 8 9 11 12 12 12 10 9 9 8 12 11 10 11 9 12 12 13 12 14 14 13 11 10 12 11 10 9 8 7 6 6 7 5 5
5 6 6 4 4 4 5 5 4 4 4 4 3 3 3 4 4 6 8 9 10 12 15 13 9 10 8 9 9 9 10 10 10 11 12 13 14 12 14 13 14 11 10 12 12 10 8 8 7 7 6 6 6 6
5 5 6 4 4 4 5 5 5 5 4 4 4 4 4 4 5 7 8 9 9 12 14 13 10 9 9 9 10 10 11 12 13 13 14 14 13 14 14 14 14 11 12 13 13 10 10 9 7 6 7 7 6 6
4 5 6 5 4 5 5 5 5 5 4 4 4 5 5 6 6 8 11 9 8 10 13 15 11 11 10 10 10 11 11 12 13 14 15 14 12 14 16 16 10 9 9 9 10 8 8 7 6 5 6 6 6 6
4 5 5 5 4 5 5 5 5 4 4 5 5 5 6 6 8 10 11 9 8 9 13 15 14 11 10 10 11 11 11 12 12 13 14 14 13 12 15 14 12 10 8 8 7 7 8 7 7 6 6 5 5 5
4 5 5 5 4 5 5 4 4 4 5 5 6 6 6 6 7 10 9 7 8 11 12 16 15 13 11 13 13 11 13 12 12 13 13 14 12 12 14 12 10 9 8 7 7 6 7 6 6 6 5 4 5 5
4 5 6 5 4 4 4 5 4 5 6 6 6 6 7 9 10 10 6 6 8 11 16 15 16 16 11 12 12 12 12 14 12 13 13 12 13 15 12 11 10 8 8 7 6 6 6 6 6 6 6 5 5 5
4 4 5 4 5 5 4 5 6 6 6 6 8 10 12 10 5 6 9 11 12 12 13 16 14 13 11 12 13 12 12 14 15 13 11 13 13 10 9 9 8 7 6 5 7 7 6 7 6 5 5 5 5 4
4 5 4 4 4 4 5 6 6 6 7 9 11 11 9 5 10 11 13 14 14 15 14 14 14 14 10 13 13 12 14 13 15 13 11 12 13 9 6 6 5 5 4 4 5 5 5 5 5 5 5 4 4 4
3 3 4 4 4 5 6 6 6 8 9 9 9 8 9 10 12 14 15 15 15 16 14 15 14 13 12 10 11 11 13 13 14 10 12 13 10 7 6 5 5 4 4 4 4 4 4 4 4 4 4 4 4 3
3 3 4 5 5 6 6 6 6 6 7 8 10 11 12 13 18 17 18 17 17 14 13 14 14 13 12 11 12 11 13 14 10 13 13 11 8 6 5 5 5 4 4 4 4 4 4 4 3 4 4 3 3 3
3 4 4 5 6 6 6 6 6 6 9 11 12 16 15 16 16 15 15 15 13 12 12 12 14 13 13 13 13 13 12 11 14 14 13 10 8 6 5 4 5 5 4 4 4 4 4 4 4 4 4 4 4 5
4 4 4 5 5 5 6 6 5 7 9 12 12 17 15 13 13 13 12 12 11 10 10 11 11 11 12 12 11 12 13 14 12 13 10 7 6 6 5 5 5 5 4 5 4 5 5 5 5 6 6 7 6 6
4 5 6 5 5 5 5 5 7 8 9 11 12 13 12 13 14 13 12 11 9 9 9 9 11 13 12 12 12 12 13 14 12 9 7 6 6 5 5 5 4 4 4 5 5 4 5 5 7 8 7 8 7 7
5 7 5 5 5 5 5 7 8 9 10 11 13 11 11 11 12 11 10 9 8 9 11 11 13 12 11 12 12 10 12 10 9 8 6 6 6 6 5 4 4 5 4 4 4 5 5 6 7 8 9 8 8 6
7 5 5 5 5 6 6 7 9 10 11 12 13 12 11 10 10 9 8 8 8 10 10 11 10 12 13 12 12 10 8 8 7 6 6 5 5 5 4 5 4 4 5 5 5 5 5 7 8 9 8 8 8 8
6 5 4 4 5 6 9 9 9 12 12 12 12 11 11 9 8 7 7 7 7 7 8 9 11 14 12 10 9 9 8 8 8 7 6 5 5 4 4 5 4 4 5 5 5 5 5 7 7 8 8 8 8 8
5 5 5 4 5 7 9 10 8 10 11 10 8 9 10 9 7 7 7 7 7 8 10 11 11 10 10 8 7 7 7 7 6 7 6 5 4 4 6 4 4 4 5 5 4 7 5 7 7 7 8 8 9 9
6 6 5 6 6 7 8 9 9 9 9 10 9 9 9 8 8 8 8 7 8 10 12 9 9 9 6 6 6 6 6 6 7 6 6 5 4 5 5 4 4 4 5 5 5 6 6 6 6 7 8 8 8 8
7 4 6 5 8 7 9 7 9 8 9 9 9 9 11 11 10 9 7 9 9 10 8 8 7 7 6 6 6 6 6 6 6 6 6 4 5 6 5 4 5 5 5 5 5 5 5 5 5 6 8 9 9 9
4 5 6 7 10 11 9 6 9 8 11 10 8 9 9 10 8 6 9 8 8 6 5 5 5 5 6 5 5 5 5 5 6 6 4 4 5 4 4 4 4 4 5 5 5 5 5 9 8 7 7 8 8 10
3 6 8 10 9 9 7 10 8 8 7 9 9 9 9 8 6 8 9 7 6 6 7 5 4 5 4 4 5 6 5 4 4 3 4 5 5 5 3 3 3 4 4 4 5 5 5 5 7 5 6 6 7 8
9 9 9 11 8 9 9 9 8 8 10 9 10 9 9 6 9 9 10 8 7 6 6 5 5 5 5 5 4 4 3 3 4 5 4 4 5 4 4 3 3 3 3 4 5 5 6 6 6 7 6 6 7 7
9 8 8 8 8 9 9 10 9 9 9 9 9 8 7 9 10 11 9 7 6 6 6 7 7 6 5 4 5 4 4 4 3 5 4 4 5 5 4 4 4 4 2 3 4 5 6 6 6 6 7 8 11 8
9 9 7 4 6 7 8 7 7 10 9 10 9 9 9 12 11 9 7 7 7 6 6 6 6 6 6 5 4 3 4 4 4 5 4 4 4 3 4 5 5 4 2 3 4 5 5 6 6 7 7 7 7 8
7 7 9 7 8 8 9 9 10 11 10 9 9 10 11 12 11 9 8 6 6 6 5 5 4 6 5 6 5 5 5 5 4 4 4 4 3 3 3 4 6 11 5 4 4 4 5 6 6 7 7 7 8 7
8 6 6 8 8 8 9 10 9 8 7 8 10 11 10 9 8 9 8 7 6 6 6 5 5 4 6 5 5 5 5 5 5 6 6 6 6 4 2 3 4 4 5 7 12 8 6 6 6 6 7 7 7 7
7 6 8 8 9 11 9 7 8 7 6 7 7 8 9 8 7 6 7 7 7 7 6 5 4 4 5 7 6 6 5 5 5 5 6 6 5 3 2 4 4 5 5 6 7 8 11 7 8 6 7 7 7 7
5 6 7 8 9 8 7 7 7 7 6 6 6 8 9 8 7 6 6 6 7 6 6 6 5 4 4 6 7 7 7 5 5 4 4 4 4 4 2 2 3 4 4 5 6 6 7 7 7 7 7 7 7 7
6 7 8 9 8 6 5 7 7 7 7 8 8 7 8 8 10 8 6 7 7 8 8 6 6 5 5 4 4 4 7 4 4 4 3 4 5 4 4 1 1 3 4 5 6 6 6 6 6 7 7 7 7 7
6 6 6 7 8 8 7 7 8 8 8 8 8 8 8 9 11 8 5 5 7 7 7 6 5 4 4 4 4 4 6 4 6 9 9 9 11 9 6 2 2 3 4 5 5 5 5 5 6 6 6 6 7 7